FREGAT R/B, 45255

Orbit data source: Space-Track

FREGAT R/B, 45255 is space debris in HEO originally from a launch on Thu, 20 Feb 2020 UTC launched from the Plesetsk Missile And Space Complex (PKMTR). Debris objects in space refer to the collection of defunct objects orbiting the Earth. Examples of debris include non-operational satellites, rocket bodies, and fragments generated from explosions, collisions, or faulty payload assembly.

Loading next visibility...
Identifier
45255, 2020-015B
Orbit
HEO
Country
Flag of CISCIS
Related business
Manufacturer
Lavochkin
Mission
Spacecraft
Bus & Motor
FREGAT, Unknown motor
Mass
1,000 kg wet, 1,000 kg dry
Launch date (UTC)
2020-02-20 (7 years ago)
Launch vehicle
Unknown
Launch site
Plesetsk Missile And Space Complex (PKMTR)
Object type
Payload
Rocket body
Debris
Shape & HBR
Cyl, 1.7 m
Radar Cross Section
8.354 m², Large (>1 m²)

Expand to show TLE details & history
Last TLE update: 19 hours ago

TLE from 19 hours ago
0 FREGAT R/B
1 45255U 20015B   26253.13224786 -.00000717  00000-0  00000+0 0  9995
2 45255  65.6730 304.0620 6864554 277.4814  15.5102  1.99773947 47850
Epoch: 2026-09-10T03:10Z
TLE epoch observation values (Epoch: 2026-09-10T03:10:26.215Z)
Latitude
-0.00031°
Longitude
-92.64837°
Altitude
6,599.92 km
Speed
6.817 km/s
True Right ascension
20h 16m 32s
True Declination
0° 00' 01"
Sunlit
Object was in daylight at epoch
Visualization orbit readout
Latitude
Unknown
Longitude
Unknown
Altitude
Unknown
Speed
Unknown
Apparent Right ascension
Unknown
Apparent Declination
Unknown
Sunlit
N/A
Visualization observer readout
Local Sidereal Time
14:20:38
Azimuth
Unknown
Elevation
Unknown
Doppler factor
Unknown
Orbital elements
Apogee altitude
38,530.911 km
Perigee altitude
1,971.322 km
Semi-major axis
26,629.253 km
Eccentricity
0.68646
Inclination
65.673°
RAAN
304.062°
Arg. of periapsis
277.4814°
True anomaly
82.82965°
Mean anomaly
15.5102°
Eccentric anomaly
41.64741°
Mean motion
0.49946 °/min
Orbital period
720.77 mins
BSTAR
0
Loading maneuver chart data...
Computing Atmospheric mass density...
Loading historical data...
Loading historical data...
Loading historical data...
Loading historical data...
Loading historical data...
Loading historical data...
Loading historical data...
Other satellites on launch #15 in the year 2020 (2020-02-20 UTC)

Documentation

Showing up to 5 results
|